Location: Bucharest
(44.4268°N, 26.1025°E)
Time: 17:46:09
(UTC+03:00)

ESTCUBE 1 - Pass Details

Date: 29 June 2022
Orbit: 645 x 657 km, 97.9° (Epoch: 18 August)

Event Time Altitude Azimuth Distance (km) Brightness Sun altitude
Exits shadow 22:02:17 - 106° (ESE) 2,226 ? -8.8°
Reaches altitude 10° 22:02:58 10° 99° (E) 2,046 ? -8.9°
Maximum altitude 22:05:40 16° 62° (ENE) 1,682 ? -9.2°
Drops below altitude 10° 22:08:23 10° 24° (NNE) 2,058 ? -9.6°
Sets 22:11:20 0° 4° (N) 2,975 ? -9.9°
